"read_dt","SO2 (ppb)","flags","PMT voltage (V)","lamp voltage (V)","lamp intensity (Hz)","internal temp (C)","react chamber temp (C)","sample flow (l/min)","pres (mmHg)","SO2 bkg (ppb)","SO2 coefficient"
2018-08-18 00:00:00,-2.666E-01,4C000000*,-702.6,962.575,90,29.1,44.8,0.406,733.3,2.1,1.050*
2018-08-18 00:01:00,-3.727E-01,4C000000*,-702.6,963.384,90,29.2,45.0,0.406,733.3,2.1,1.050*
2018-08-18 00:02:00,-3.356E-01,4C000000*,-702.6,962.171,89,29.2,45.0,0.406,733.3,2.1,1.050*
2018-08-18 00:03:00,-2.786E-01,4C000000*,-702.6,961.767,90,29.1,45.0,0.406,733.3,2.1,1.050*
2018-08-18 00:04:00,-3.245E-01,4C000000*,-702.6,961.767,90,29.1,45.0,0.406,733.3,2.1,1.050*
2018-08-18 00:05:00,-3.443E-01,4C000000*,-702.6,962.171,90,29.2,44.9,0.405,733.6,2.1,1.050*
2018-08-18 00:06:00,-3.105E-01,4C000000*,-702.6,962.979,90,29.2,45.2,0.406,733.3,2.1,1.050*
2018-08-18 00:07:00,-3.443E-01,4C000000*,-702.6,961.767,91,29.2,44.8,0.406,733.3,2.1,1.050*
2018-08-18 00:08:00,-3.705E-01,4C000000*,-702.6,963.788,91,29.1,45.1,0.406,733.3,2.1,1.050*
2018-08-18 00:09:00,-3.531E-01,4C000000*,-702.6,964.192,89,29.2,45.0,0.406,733.3,2.1,1.050*
2018-08-18 00:10:00,-3.478E-01,4C000000*,-702.3,963.788,89,29.2,45.0,0.406,733.3,2.1,1.050*
2018-08-18 00:11:00,-3.661E-01,4C000000*,-702.6,962.979,89,29.2,45.1,0.406,733.3,2.1,1.050*
2018-08-18 00:12:00,-2.977E-01,4C000000*,-702.6,964.192,88,29.1,44.9,0.405,733.6,2.1,1.050*
2018-08-18 00:13:00,-3.369E-01,4C000000*,-702.6,963.384,90,29.2,45.2,0.406,733.3,2.1,1.050*
2018-08-18 00:14:00,-3.199E-01,4C000000*,-702.6,963.788,90,29.1,44.9,0.405,733.6,2.1,1.050*
2018-08-18 00:15:00,-3.236E-01,4C000000*,-702.6,962.575,89,29.3,45.1,0.406,733.3,2.1,1.050*
2018-08-18 00:16:00,-2.969E-01,4C000000*,-702.6,964.192,88,29.2,44.8,0.406,733.3,2.1,1.050*
2018-08-18 00:17:00,-2.871E-01,4C000000*,-702.6,963.788,90,29.2,45.0,0.406,733.6,2.1,1.050*
2018-08-18 00:18:00,-2.527E-01,4C000000*,-702.6,962.575,89,29.2,45.1,0.406,733.3,2.1,1.050*
2018-08-18 00:19:00,-3.265E-01,4C000000*,-702.6,963.384,91,29.1,44.9,0.406,733.6,2.1,1.050*
2018-08-18 00:20:00,-2.428E-01,4C000000*,-702.6,962.979,90,29.1,45.1,0.406,733.3,2.1,1.050*
2018-08-18 00:21:00,-1.976E-01,4C000000*,-702.6,963.788,90,29.2,44.9,0.406,733.3,2.1,1.050*
2018-08-18 00:22:00,-3.090E-01,4C000000*,-702.3,963.788,90,29.2,45.2,0.406,733.6,2.1,1.050*
2018-08-18 00:23:00,-2.934E-01,4C000000*,-702.6,963.384,90,29.1,44.9,0.406,733.3,2.1,1.050*
2018-08-18 00:24:00,-3.534E-01,4C000000*,-703.0,962.979,90,29.1,45.0,0.406,733.3,2.1,1.050*
2018-08-18 00:25:00,-2.479E-01,4C000000*,-702.6,961.767,89,29.2,45.0,0.406,733.3,2.1,1.050*
2018-08-18 00:26:00,-3.099E-01,4C000000*,-702.6,963.384,88,29.2,44.9,0.406,733.6,2.1,1.050*
2018-08-18 00:27:00,-3.064E-01,4C000000*,-702.6,962.171,90,29.2,45.1,0.406,733.3,2.1,1.050*
2018-08-18 00:28:00,-2.846E-01,4C000000*,-703.0,963.788,90,29.1,44.9,0.406,733.6,2.1,1.050*
2018-08-18 00:29:00,-3.359E-01,4C000000*,-702.6,962.575,90,29.1,45.2,0.406,733.6,2.1,1.050*
2018-08-18 00:30:00,-3.707E-01,4C000000*,-702.6,962.575,91,29.2,44.9,0.406,733.6,2.1,1.050*
2018-08-18 00:31:00,-3.133E-01,4C000000*,-702.6,962.575,91,29.2,45.1,0.406,733.6,2.1,1.050*
2018-08-18 00:32:00,-3.229E-01,4C000000*,-702.6,963.788,87,29.2,44.9,0.406,733.3,2.1,1.050*
2018-08-18 00:33:00,-3.607E-01,4C000000*,-702.6,962.171,89,29.1,45.0,0.406,733.6,2.1,1.050*
2018-08-18 00:34:00,-3.526E-01,4C000000*,-702.6,962.575,91,29.1,45.1,0.406,733.3,2.1,1.050*
2018-08-18 00:35:00,-2.346E-01,4C000000*,-702.6,963.384,90,29.1,44.9,0.406,733.6,2.1,1.050*
2018-08-18 00:36:00,-2.733E-01,4C000000*,-703.0,962.979,90,29.1,45.2,0.406,733.6,2.1,1.050*
2018-08-18 00:37:00,-2.991E-01,4C000000*,-703.4,962.171,89,29.1,44.8,0.406,733.6,2.1,1.050*
2018-08-18 00:38:00,-3.434E-01,4C000000*,-702.6,961.767,88,29.2,45.1,0.406,733.6,2.1,1.050*
2018-08-18 00:39:00,-3.284E-01,4C000000*,-702.6,963.384,89,29.1,44.9,0.406,733.6,2.1,1.050*
2018-08-18 00:40:00,-3.200E-01,4C000000*,-702.3,962.171,91,29.2,45.0,0.406,733.6,2.1,1.050*
2018-08-18 00:41:00,-3.927E-01,4C000000*,-702.6,962.979,90,29.1,45.1,0.406,733.6,2.1,1.050*
2018-08-18 00:42:00,-2.506E-01,4C000000*,-702.6,962.171,90,29.1,44.9,0.406,733.6,2.1,1.050*
2018-08-18 00:43:00,-3.603E-01,4C000000*,-702.6,962.575,90,29.1,45.1,0.406,733.6,2.1,1.050*
2018-08-18 00:44:00,-2.742E-01,4C000000*,-702.6,962.171,89,29.1,44.8,0.406,733.6,2.1,1.050*
2018-08-18 00:45:00,-2.928E-01,4C000000*,-703.0,962.979,90,29.2,45.1,0.406,733.6,2.1,1.050*
2018-08-18 00:46:00,-2.759E-01,4C000000*,-703.0,962.979,91,29.1,44.9,0.406,733.6,2.1,1.050*
2018-08-18 00:47:00,-3.769E-01,4C000000*,-702.6,964.192,88,29.1,45.0,0.406,733.6,2.1,1.050*
2018-08-18 00:48:00,-3.013E-01,4C000000*,-702.6,961.767,90,29.2,45.0,0.406,733.6,2.1,1.050*
2018-08-18 00:49:00,-2.380E-01,4C000000*,-702.6,962.171,90,29.1,44.9,0.406,733.6,2.1,1.050*
2018-08-18 00:50:00,-3.015E-01,4C000000*,-702.6,963.384,90,29.1,45.1,0.406,733.6,2.1,1.050*
2018-08-18 00:51:00,-3.474E-01,4C000000*,-702.6,964.597,89,29.2,44.9,0.406,733.6,2.1,1.050*
2018-08-18 00:52:00,-2.803E-01,4C000000*,-703.0,963.788,88,29.1,45.2,0.406,733.6,2.1,1.050*
2018-08-18 00:53:00,-3.269E-01,4C000000*,-702.6,962.979,90,29.2,44.8,0.406,733.6,2.1,1.050*
2018-08-18 00:54:00,-2.358E-01,4C000000*,-702.6,963.384,90,29.1,45.1,0.406,733.6,2.1,1.050*
2018-08-18 00:55:00,-3.205E-01,4C000000*,-702.3,964.192,92,29.2,45.0,0.406,733.6,2.1,1.050*
2018-08-18 00:56:00,-2.402E-01,4C000000*,-702.3,963.788,89,29.1,45.0,0.406,733.6,2.1,1.050*
2018-08-18 00:57:00,-3.205E-01,4C000000*,-703.0,962.171,90,29.1,45.2,0.406,733.6,2.1,1.050*
2018-08-18 00:58:00,-3.067E-01,4C000000*,-702.6,962.979,90,29.1,44.8,0.406,733.6,2.1,1.050*
2018-08-18 00:59:00,-3.332E-01,4C000000*,-702.6,963.788,90,29.1,45.0,0.406,733.6,2.1,1.050*
2018-08-18 01:00:00,-2.492E-01,4C000000*,-702.6,963.384,90,29.1,45.0,0.406,733.6,2.1,1.050*
2018-08-18 01:01:00,-3.058E-01,4C000000*,-703.0,964.192,90,29.1,45.0,0.406,733.6,2.1,1.050*
2018-08-18 01:02:00,-2.918E-01,4C000000*,-702.6,962.979,89,29.2,45.1,0.406,733.6,2.1,1.050*
2018-08-18 01:03:00,-3.013E-01,4C000000*,-702.3,963.384,90,29.2,44.9,0.406,733.6,2.1,1.050*
2018-08-18 01:04:00,-3.487E-01,4C000000*,-702.6,964.597,90,29.1,45.2,0.406,733.6,2.1,1.050*
2018-08-18 01:05:00,-3.989E-01,4C000000*,-702.6,963.788,89,29.2,44.8,0.406,733.9,2.1,1.050*
2018-08-18 01:06:00,-2.314E-01,4C000000*,-702.6,964.192,91,29.1,45.0,0.406,733.9,2.1,1.050*
2018-08-18 01:07:00,-3.334E-01,4C000000*,-702.6,963.788,90,29.1,44.9,0.406,733.6,2.1,1.050*
2018-08-18 01:08:00,-2.551E-01,4C000000*,-702.6,962.979,90,29.1,45.0,0.406,733.9,2.1,1.050*
2018-08-18 01:09:00,-2.477E-01,4C000000*,-702.6,963.788,88,29.1,45.1,0.406,733.6,2.1,1.050*
2018-08-18 01:10:00,-2.669E-01,4C000000*,-702.6,963.788,91,29.1,44.9,0.406,733.9,2.1,1.050*
2018-08-18 01:11:00,-2.396E-01,4C000000*,-702.6,964.192,90,29.2,45.2,0.406,733.9,2.1,1.050*
2018-08-18 01:12:00,-2.993E-01,4C000000*,-702.6,962.171,90,29.1,44.8,0.406,733.6,2.1,1.050*
2018-08-18 01:13:00,-2.474E-01,4C000000*,-702.6,964.192,90,29.3,45.1,0.406,733.9,2.1,1.050*
2018-08-18 01:14:00,-3.538E-01,4C000000*,-702.6,962.979,90,29.1,44.9,0.406,733.9,2.1,1.050*
2018-08-18 01:15:00,-2.962E-01,4C000000*,-702.6,964.192,89,29.1,45.0,0.406,733.9,2.1,1.050*
2018-08-18 01:16:00,-3.401E-01,4C000000*,-702.6,964.597,89,29.1,45.1,0.406,733.9,2.1,1.050*
2018-08-18 01:17:00,-2.679E-01,4C000000*,-703.0,964.192,90,29.1,44.9,0.406,733.9,2.1,1.050*
2018-08-18 01:18:00,-3.248E-01,4C000000*,-702.6,962.979,90,29.1,45.1,0.406,733.6,2.1,1.050*
2018-08-18 01:19:00,-3.016E-01,4C000000*,-702.6,963.384,90,29.1,44.9,0.406,733.9,2.1,1.050*
2018-08-18 01:20:00,-2.781E-01,4C000000*,-702.6,963.788,91,29.1,45.1,0.406,733.9,2.1,1.050*
2018-08-18 01:21:00,-3.210E-01,4C000000*,-702.6,963.788,91,29.1,44.9,0.407,733.9,2.1,1.050*
2018-08-18 01:22:00,-3.222E-01,4C000000*,-703.0,962.979,90,29.2,45.1,0.406,733.9,2.1,1.050*
2018-08-18 01:23:00,-2.911E-01,4C000000*,-703.0,962.575,90,29.1,45.0,0.406,733.9,2.1,1.050*
2018-08-18 01:24:00,-2.951E-01,4C000000*,-702.6,962.979,90,29.1,44.9,0.406,733.9,2.1,1.050*
2018-08-18 01:25:00,-2.637E-01,4C000000*,-703.0,962.575,90,29.1,45.1,0.406,733.9,2.1,1.050*
2018-08-18 01:26:00,-3.246E-01,4C000000*,-703.0,963.384,90,29.1,44.8,0.406,733.9,2.1,1.050*
2018-08-18 01:27:00,-2.936E-01,4C000000*,-702.6,963.788,90,29.1,45.2,0.406,733.9,2.1,1.050*
2018-08-18 01:28:00,-2.826E-01,4C000000*,-702.6,963.788,89,29.2,44.8,0.406,733.9,2.1,1.050*
2018-08-18 01:29:00,-3.513E-01,4C000000*,-702.6,963.788,90,29.2,45.0,0.406,733.9,2.1,1.050*
2018-08-18 01:30:00,-3.576E-01,4C000000*,-702.6,961.362,90,29.1,44.9,0.407,733.9,2.1,1.050*
2018-08-18 01:31:00,-4.651E-01,4C000000*,-703.0,963.384,91,29.2,45.0,0.406,733.9,2.1,1.050*
2018-08-18 01:32:00,-3.286E-01,4C000000*,-703.0,963.788,91,29.1,45.1,0.406,733.9,2.1,1.050*
2018-08-18 01:33:00,-2.822E-01,4C000000*,-702.6,962.171,90,29.1,44.9,0.406,733.9,2.1,1.050*
2018-08-18 01:34:00,-2.869E-01,4C000000*,-702.6,963.788,92,29.1,45.2,0.406,733.9,2.1,1.050*
2018-08-18 01:35:00,-3.229E-01,4C000000*,-703.0,962.979,89,29.1,44.8,0.406,733.9,2.1,1.050*
2018-08-18 01:36:00,-3.215E-01,4C000000*,-702.6,964.192,90,29.1,45.1,0.406,733.9,2.1,1.050*
2018-08-18 01:37:00,-2.790E-01,4C000000*,-702.3,962.575,91,29.1,44.8,0.406,733.9,2.1,1.050*
2018-08-18 01:38:00,-3.394E-01,4C000000*,-702.6,962.979,89,29.1,45.0,0.406,733.9,2.1,1.050*
2018-08-18 01:39:00,-3.921E-01,4C000000*,-702.6,962.979,90,29.1,45.1,0.406,733.9,2.1,1.050*
2018-08-18 01:40:00,-2.908E-01,4C000000*,-703.0,962.979,89,29.1,44.9,0.406,734.2,2.1,1.050*
2018-08-18 01:41:00,-3.088E-01,4C000000*,-702.6,963.788,90,29.1,45.1,0.406,733.9,2.1,1.050*
2018-08-18 01:42:00,-3.341E-01,4C000000*,-702.6,962.979,90,29.2,44.9,0.406,734.2,2.1,1.050*
2018-08-18 01:43:00,-2.927E-01,4C000000*,-702.6,962.979,90,29.1,45.1,0.406,734.2,2.1,1.050*
2018-08-18 01:44:00,-3.004E-01,4C000000*,-702.6,962.171,89,29.1,44.9,0.406,733.9,2.1,1.050*
2018-08-18 01:45:00,-3.533E-01,4C000000*,-702.3,962.979,90,29.1,45.1,0.406,734.2,2.1,1.050*
2018-08-18 01:46:00,-3.304E-01,4C000000*,-702.6,963.384,91,29.1,45.0,0.406,733.9,2.1,1.050*
2018-08-18 01:47:00,-3.206E-01,4C000000*,-702.6,964.597,90,29.1,44.9,0.406,734.2,2.1,1.050*
2018-08-18 01:48:00,-2.437E-01,4C000000*,-702.6,962.979,90,29.1,45.0,0.406,734.2,2.1,1.050*
2018-08-18 01:49:00,-2.719E-01,4C000000*,-702.6,963.384,90,29.1,44.9,0.406,734.2,2.1,1.050*
2018-08-18 01:50:00,-2.655E-01,4C000000*,-702.6,962.575,90,29.1,45.2,0.407,734.2,2.1,1.050*
2018-08-18 01:51:00,-2.685E-01,4C000000*,-702.3,963.788,90,29.1,44.8,0.407,734.2,2.1,1.050*
2018-08-18 01:52:00,-2.557E-01,4C000000*,-702.6,962.171,90,29.1,45.1,0.406,734.2,2.1,1.050*
2018-08-18 01:53:00,-3.185E-01,4C000000*,-702.6,963.384,90,29.1,44.9,0.406,734.2,2.1,1.050*
2018-08-18 01:54:00,-3.536E-01,4C000000*,-702.6,963.788,89,29.1,45.0,0.406,734.2,2.1,1.050*
2018-08-18 01:55:00,-2.967E-01,4C000000*,-702.6,962.171,90,29.2,45.1,0.406,734.2,2.1,1.050*
2018-08-18 01:56:00,-3.139E-01,4C000000*,-702.6,962.979,90,29.1,44.9,0.406,733.9,2.1,1.050*
2018-08-18 01:57:00,-3.071E-01,4C000000*,-702.6,963.788,90,29.1,45.2,0.406,734.2,2.1,1.050*
2018-08-18 01:58:00,-3.126E-01,4C000000*,-702.6,962.575,89,29.1,44.8,0.406,734.2,2.1,1.050*
2018-08-18 01:59:00,-2.157E-01,4C000000*,-702.6,963.384,91,29.2,45.1,0.406,734.5,2.1,1.050*
2018-08-18 02:00:00,-2.784E-01,4C000000*,-702.6,962.575,89,29.1,44.9,0.406,734.2,2.1,1.050*
2018-08-18 02:01:00,-2.572E-01,4C000000*,-702.6,963.384,88,29.1,45.0,0.406,734.5,2.1,1.050*
2018-08-18 02:02:00,-3.113E-01,4C000000*,-703.0,962.171,90,29.1,45.1,0.406,733.9,2.1,1.050*
2018-08-18 02:03:00,-3.268E-01,4C000000*,-702.6,962.575,90,29.1,44.9,0.406,734.2,2.1,1.050*
2018-08-18 02:04:00,-3.333E-01,4C000000*,-702.6,962.979,89,29.1,45.1,0.407,734.2,2.1,1.050*
2018-08-18 02:05:00,-2.678E-01,4C000000*,-702.6,962.979,90,29.1,44.8,0.406,734.2,2.1,1.050*
2018-08-18 02:06:00,-3.527E-01,4C000000*,-702.6,964.192,91,29.1,45.1,0.406,734.2,2.1,1.050*
2018-08-18 02:07:00,-3.100E-01,4C000000*,-703.0,963.384,91,29.1,44.8,0.406,734.2,2.1,1.050*
2018-08-18 02:08:00,-2.039E-01,4C000000*,-702.6,962.575,89,29.1,45.0,0.407,734.5,2.1,1.050*
2018-08-18 02:09:00,-2.468E-01,4C000000*,-702.3,963.788,90,29.1,45.1,0.406,734.2,2.1,1.050*
2018-08-18 02:10:00,-2.644E-01,4C000000*,-702.6,963.384,90,29.1,44.9,0.406,734.5,2.1,1.050*
2018-08-18 02:11:00,-2.154E-01,4C000000*,-702.6,962.575,90,29.1,45.0,0.406,734.5,2.1,1.050*
2018-08-18 02:12:00,-3.469E-01,4C000000*,-702.6,963.788,89,29.1,44.8,0.407,734.5,2.1,1.050*
2018-08-18 02:13:00,-3.089E-01,4C000000*,-702.6,964.192,90,29.1,45.2,0.406,734.5,2.1,1.050*
2018-08-18 02:14:00,-2.982E-01,4C000000*,-702.6,962.979,89,29.1,44.9,0.406,734.2,2.1,1.050*
2018-08-18 02:15:00,-3.032E-01,4C000000*,-702.6,963.788,91,29.1,45.0,0.407,734.5,2.1,1.050*
2018-08-18 02:16:00,-2.891E-01,4C000000*,-702.3,963.384,90,29.1,44.9,0.406,734.2,2.1,1.050*
2018-08-18 02:17:00,-4.026E-01,4C000000*,-702.6,964.597,90,29.1,45.0,0.406,734.5,2.1,1.050*
2018-08-18 02:18:00,-2.670E-01,4C000000*,-703.0,965.001,90,29.1,45.1,0.406,734.2,2.1,1.050*
2018-08-18 02:19:00,-4.338E-01,4C000000*,-702.6,963.788,89,29.1,44.9,0.406,734.2,2.1,1.050*
2018-08-18 02:20:00,-3.709E-01,4C000000*,-703.0,964.597,90,29.1,45.2,0.406,734.5,2.1,1.050*
2018-08-18 02:21:00,-3.465E-01,4C000000*,-703.0,964.192,90,29.1,44.8,0.407,734.5,2.1,1.050*
2018-08-18 02:22:00,-3.578E-01,4C000000*,-703.0,962.979,90,29.1,45.1,0.407,734.5,2.1,1.050*
2018-08-18 02:23:00,-3.383E-01,4C000000*,-702.6,964.192,90,29.2,45.0,0.406,734.2,2.1,1.050*
2018-08-18 02:24:00,-2.063E-01,4C000000*,-702.6,963.384,90,29.1,45.0,0.407,734.5,2.1,1.050*
2018-08-18 02:25:00,-3.790E-01,4C000000*,-702.6,964.597,89,29.1,45.1,0.406,734.5,2.1,1.050*
2018-08-18 02:26:00,-3.206E-01,4C000000*,-703.0,963.384,90,29.1,44.9,0.407,734.5,2.1,1.050*
2018-08-18 02:27:00,-4.164E-01,4C000000*,-702.3,964.192,90,29.1,45.1,0.407,734.5,2.1,1.050*
2018-08-18 02:28:00,-3.235E-01,4C000000*,-702.6,964.192,90,29.1,44.9,0.407,734.5,2.1,1.050*
2018-08-18 02:29:00,-4.217E-01,4C000000*,-702.6,963.788,90,29.1,45.1,0.407,734.5,2.1,1.050*
2018-08-18 02:30:00,-2.809E-01,4C000000*,-702.6,963.384,89,29.1,44.9,0.407,734.5,2.1,1.050*
2018-08-18 02:31:00,-3.316E-01,4C000000*,-702.6,963.788,90,29.1,45.0,0.406,734.5,2.1,1.050*
2018-08-18 02:32:00,-2.429E-01,4C000000*,-702.6,964.597,91,29.1,45.1,0.407,734.5,2.1,1.050*
2018-08-18 02:33:00,-3.428E-01,4C000000*,-702.6,965.001,90,29.1,44.9,0.406,734.5,2.1,1.050*
2018-08-18 02:34:00,-3.836E-01,4C000000*,-702.6,964.192,89,29.1,45.1,0.407,734.5,2.1,1.050*
2018-08-18 02:35:00,-3.105E-01,4C000000*,-702.3,963.384,90,29.1,44.8,0.407,734.5,2.1,1.050*
2018-08-18 02:36:00,-3.145E-01,4C000000*,-702.6,963.788,91,29.1,45.2,0.406,734.5,2.1,1.050*
2018-08-18 02:37:00,-3.827E-01,4C000000*,-702.6,965.001,90,29.1,44.8,0.406,734.8,2.1,1.050*
2018-08-18 02:38:00,-3.574E-01,4C000000*,-702.6,965.001,89,29.1,45.0,0.407,734.8,2.1,1.050*
2018-08-18 02:39:00,-3.276E-01,4C000000*,-702.6,964.597,88,29.1,45.0,0.407,734.5,2.1,1.050*
2018-08-18 02:40:00,-2.955E-01,4C000000*,-702.6,963.384,89,29.1,45.0,0.407,734.8,2.1,1.050*
2018-08-18 02:41:00,-3.389E-01,4C000000*,-703.4,963.788,89,29.2,45.1,0.407,734.5,2.1,1.050*
2018-08-18 02:42:00,-2.908E-01,4C000000*,-702.6,963.788,89,29.1,44.9,0.407,734.8,2.1,1.050*
2018-08-18 02:43:00,-3.425E-01,4C000000*,-702.6,964.192,90,29.1,45.2,0.407,734.8,2.1,1.050*
2018-08-18 02:44:00,-2.822E-01,4C000000*,-703.0,963.788,89,29.2,44.9,0.407,734.5,2.1,1.050*
2018-08-18 02:45:00,-2.538E-01,4C000000*,-702.6,964.597,90,29.1,45.1,0.407,734.8,2.1,1.050*
2018-08-18 02:46:00,-2.676E-01,4C000000*,-702.6,962.575,89,29.1,44.9,0.407,734.5,2.1,1.050*
2018-08-18 02:47:00,-3.430E-01,4C000000*,-702.6,965.001,89,29.1,45.0,0.407,734.8,2.1,1.050*
2018-08-18 02:48:00,-3.098E-01,4C000000*,-703.0,964.597,91,29.1,45.1,0.407,734.5,2.1,1.050*
2018-08-18 02:49:00,-3.687E-01,4C000000*,-702.6,963.788,89,29.1,44.9,0.406,734.8,2.1,1.050*
2018-08-18 02:50:00,-3.500E-01,4C000000*,-702.3,962.979,91,29.1,45.2,0.406,734.5,2.1,1.050*
2018-08-18 02:51:00,-3.292E-01,4C000000*,-702.6,964.597,90,29.1,44.8,0.407,734.8,2.1,1.050*
2018-08-18 02:52:00,-2.997E-01,4C000000*,-702.6,963.384,89,29.1,45.1,0.406,734.8,2.1,1.050*
2018-08-18 02:53:00,-3.437E-01,4C000000*,-702.6,964.192,90,29.0,44.9,0.407,734.8,2.1,1.050*
2018-08-18 02:54:00,-3.397E-01,4C000000*,-702.6,964.192,91,29.0,45.0,0.406,734.8,2.1,1.050*
2018-08-18 02:55:00,-2.674E-01,4C000000*,-702.3,962.979,90,29.0,45.1,0.406,734.8,2.1,1.050*
2018-08-18 02:56:00,-3.396E-01,4C000000*,-702.6,963.384,91,29.1,44.9,0.406,734.8,2.1,1.050*
2018-08-18 02:57:00,-2.544E-01,4C000000*,-703.0,964.192,90,29.1,45.1,0.407,734.8,2.1,1.050*
2018-08-18 02:58:00,-3.231E-01,4C000000*,-702.6,964.597,91,29.1,44.8,0.407,734.8,2.1,1.050*
2018-08-18 02:59:00,-3.155E-01,4C000000*,-702.6,962.575,90,29.1,45.1,0.407,735.1,2.1,1.050*
2018-08-18 03:00:00,-2.905E-01,4C000000*,-703.4,964.597,88,29.1,44.9,0.406,734.8,2.1,1.050*
2018-08-18 03:01:00,-2.796E-01,4C000000*,-702.6,964.192,89,29.0,45.1,0.406,734.8,2.1,1.050*
2018-08-18 03:02:00,-3.593E-01,4C000000*,-702.6,963.788,91,29.0,45.0,0.407,734.8,2.1,1.050*
2018-08-18 03:03:00,-3.740E-01,4C000000*,-702.6,965.001,90,29.1,44.9,0.407,734.8,2.1,1.050*
2018-08-18 03:04:00,-2.325E-01,4C000000*,-703.0,964.192,90,29.1,45.0,0.407,734.8,2.1,1.050*
2018-08-18 03:05:00,-2.731E-01,4C000000*,-702.6,964.192,90,29.1,44.9,0.406,734.8,2.1,1.050*
2018-08-18 03:06:00,-2.907E-01,4C000000*,-702.6,965.001,90,29.0,45.2,0.407,734.8,2.1,1.050*
2018-08-18 03:07:00,-2.446E-01,4C000000*,-703.4,964.192,91,29.1,44.8,0.406,734.8,2.1,1.050*
2018-08-18 03:08:00,-2.861E-01,4C000000*,-702.6,962.575,89,29.1,45.1,0.407,734.8,2.1,1.050*
2018-08-18 03:09:00,-3.573E-01,4C000000*,-702.3,964.192,90,29.1,45.0,0.406,734.8,2.1,1.050*
2018-08-18 03:10:00,-2.933E-01,4C000000*,-702.6,962.979,90,29.1,45.0,0.407,734.8,2.1,1.050*
2018-08-18 03:11:00,-2.242E-01,4C000000*,-702.6,965.405,89,29.1,45.1,0.406,734.8,2.1,1.050*
2018-08-18 03:12:00,-2.473E-01,4C000000*,-702.6,965.001,88,29.1,44.9,0.407,734.8,2.1,1.050*
2018-08-18 03:13:00,-3.115E-01,4C000000*,-702.6,964.192,89,29.1,45.2,0.407,734.8,2.1,1.050*
2018-08-18 03:14:00,-3.507E-01,4C000000*,-702.6,965.001,89,29.1,44.8,0.407,735.1,2.1,1.050*
2018-08-18 03:15:00,-3.800E-01,4C000000*,-702.6,962.979,90,29.1,45.0,0.407,735.1,2.1,1.050*
2018-08-18 03:16:00,-2.762E-01,4C000000*,-702.6,963.384,90,29.2,45.0,0.407,734.8,2.1,1.050*
2018-08-18 03:17:00,-3.223E-01,4C000000*,-702.6,963.384,89,29.0,44.8,0.407,735.1,2.1,1.050*
2018-08-18 03:18:00,-3.610E-01,4C000000*,-702.6,965.001,88,29.1,45.2,0.406,734.8,2.1,1.050*
2018-08-18 03:19:00,-3.254E-01,4C000000*,-703.0,963.788,89,29.1,44.8,0.407,735.1,2.1,1.050*
2018-08-18 03:20:00,-3.825E-01,4C000000*,-702.6,964.192,88,29.0,45.1,0.407,735.1,2.1,1.050*
2018-08-18 03:21:00,-2.831E-01,4C000000*,-702.6,964.192,90,29.1,44.9,0.407,734.8,2.1,1.050*
2018-08-18 03:22:00,-3.595E-01,4C000000*,-703.0,965.405,91,29.1,45.0,0.407,735.1,2.1,1.050*
2018-08-18 03:23:00,-2.860E-01,4C000000*,-702.6,963.384,90,29.1,45.1,0.407,734.8,2.1,1.050*
2018-08-18 03:24:00,-2.999E-01,4C000000*,-702.6,964.192,89,29.1,44.9,0.407,734.8,2.1,1.050*
2018-08-18 03:25:00,-3.903E-01,4C000000*,-703.0,963.788,90,29.1,45.1,0.407,734.8,2.1,1.050*
2018-08-18 03:26:00,-3.165E-01,4C000000*,-703.0,964.597,91,29.0,44.9,0.407,735.1,2.1,1.050*
2018-08-18 03:27:00,-3.029E-01,4C000000*,-702.6,962.979,90,29.0,45.0,0.406,734.8,2.1,1.050*
2018-08-18 03:28:00,-3.685E-01,4C000000*,-703.0,964.597,91,29.1,44.9,0.407,735.1,2.1,1.050*
2018-08-18 03:29:00,-3.167E-01,4C000000*,-702.6,964.597,90,29.1,45.0,0.407,735.1,2.1,1.050*
2018-08-18 03:30:00,-3.605E-01,4C000000*,-702.6,964.192,89,29.1,45.1,0.407,735.1,2.1,1.050*
2018-08-18 03:31:00,-3.209E-01,4C000000*,-702.6,963.788,89,29.1,44.9,0.407,735.1,2.1,1.050*
2018-08-18 03:32:00,-2.272E-01,4C000000*,-702.6,965.001,90,29.0,45.1,0.407,735.1,2.1,1.050*
2018-08-18 03:33:00,-3.150E-01,4C000000*,-702.6,965.405,91,29.0,44.9,0.407,735.1,2.1,1.050*
2018-08-18 03:34:00,-3.838E-01,4C000000*,-702.6,964.597,90,29.1,45.1,0.407,735.1,2.1,1.050*
2018-08-18 03:35:00,-3.467E-01,4C000000*,-702.6,964.192,90,29.1,44.8,0.407,735.1,2.1,1.050*
2018-08-18 03:36:00,-2.426E-01,4C000000*,-702.6,965.809,90,29.1,45.0,0.407,735.1,2.1,1.050*
2018-08-18 03:37:00,-2.175E-01,4C000000*,-702.6,963.788,88,29.0,45.0,0.407,735.1,2.1,1.050*
2018-08-18 03:38:00,-2.538E-01,4C000000*,-702.6,963.384,89,29.1,44.9,0.407,735.1,2.1,1.050*
2018-08-18 03:39:00,-2.802E-01,4C000000*,-702.6,965.001,90,29.1,45.1,0.407,735.1,2.1,1.050*
2018-08-18 03:40:00,-2.932E-01,4C000000*,-702.6,964.192,89,29.0,44.9,0.407,735.1,2.1,1.050*
2018-08-18 03:41:00,-3.251E-01,4C000000*,-702.6,964.192,90,29.1,45.2,0.407,735.1,2.1,1.050*
2018-08-18 03:42:00,-2.423E-01,4C000000*,-702.3,965.809,90,29.0,44.8,0.406,735.1,2.1,1.050*
2018-08-18 03:43:00,-2.619E-01,4C000000*,-702.6,964.192,89,29.1,45.1,0.407,735.1,2.1,1.050*
2018-08-18 03:44:00,-3.117E-01,4C000000*,-702.6,965.001,90,29.1,44.9,0.407,735.1,2.1,1.050*
2018-08-18 03:45:00,-2.872E-01,4C000000*,-702.6,965.001,91,29.1,45.0,0.407,735.1,2.1,1.050*
2018-08-18 03:46:00,-2.639E-01,4C000000*,-702.6,964.597,90,29.1,45.1,0.407,734.8,2.1,1.050*
2018-08-18 03:47:00,-3.491E-01,4C000000*,-702.6,964.192,90,29.1,44.9,0.407,735.1,2.1,1.050*
2018-08-18 03:48:00,-3.452E-01,4C000000*,-702.3,963.788,90,29.1,45.2,0.407,735.1,2.1,1.050*
2018-08-18 03:49:00,-3.280E-01,4C000000*,-702.6,964.597,90,29.1,44.8,0.407,735.1,2.1,1.050*
2018-08-18 03:50:00,-2.770E-01,4C000000*,-702.6,964.597,90,29.0,45.0,0.407,735.1,2.1,1.050*
2018-08-18 03:51:00,-3.100E-01,4C000000*,-702.6,964.192,89,29.1,44.9,0.407,735.1,2.1,1.050*
2018-08-18 03:52:00,-2.535E-01,4C000000*,-702.6,965.001,90,29.1,45.0,0.407,735.1,2.1,1.050*
2018-08-18 03:53:00,-4.115E-01,4C000000*,-702.6,964.597,90,29.1,45.1,0.407,735.1,2.1,1.050*
2018-08-18 03:54:00,-3.583E-01,4C000000*,-702.6,964.597,89,29.2,44.9,0.407,735.1,2.1,1.050*
2018-08-18 03:55:00,-3.211E-01,4C000000*,-702.6,965.001,90,29.1,45.1,0.407,735.1,2.1,1.050*
2018-08-18 03:56:00,-3.896E-01,4C000000*,-702.6,964.192,90,29.1,44.9,0.407,735.4,2.1,1.050*
2018-08-18 03:57:00,-2.813E-01,4C000000*,-703.0,965.001,91,29.1,45.1,0.407,735.4,2.1,1.050*
2018-08-18 03:58:00,-2.711E-01,4C000000*,-702.6,963.384,90,29.1,44.8,0.407,735.1,2.1,1.050*
2018-08-18 03:59:00,-2.594E-01,4C000000*,-702.3,964.597,91,29.1,45.0,0.407,735.1,2.1,1.050*
2018-08-18 04:00:00,-2.845E-01,4C000000*,-702.6,963.788,90,29.1,45.0,0.407,735.4,2.1,1.050*
2018-08-18 04:01:00,-3.367E-01,4C000000*,-702.6,963.384,86,29.1,45.0,0.407,735.1,2.1,1.050*
2018-08-18 04:02:00,-3.148E-01,4C000000*,-702.6,964.597,91,29.1,45.1,0.407,735.1,2.1,1.050*
2018-08-18 04:03:00,-2.209E-01,4C000000*,-702.6,965.001,89,29.1,44.8,0.407,735.4,2.1,1.050*
2018-08-18 04:04:00,-3.095E-01,4C000000*,-703.0,964.192,89,29.1,45.2,0.407,735.4,2.1,1.050*
2018-08-18 04:05:00,-3.562E-01,4C000000*,-702.6,964.192,89,29.0,44.8,0.407,735.1,2.1,1.050*
2018-08-18 04:06:00,-3.348E-01,4C000000*,-702.6,963.788,91,29.1,45.1,0.407,735.4,2.1,1.050*
2018-08-18 04:07:00,-3.902E-01,4C000000*,-703.0,965.001,89,29.1,45.0,0.407,735.1,2.1,1.050*
2018-08-18 04:08:00,-3.701E-01,4C000000*,-702.6,964.192,90,29.1,45.0,0.407,735.4,2.1,1.050*
2018-08-18 04:09:00,-3.379E-01,4C000000*,-702.6,962.575,91,29.1,45.1,0.407,735.1,2.1,1.050*
2018-08-18 04:10:00,-2.972E-01,4C000000*,-702.6,965.809,88,29.2,44.9,0.406,735.4,2.1,1.050*
2018-08-18 04:11:00,-3.726E-01,4C000000*,-702.6,964.597,90,29.1,45.2,0.407,735.4,2.1,1.050*
2018-08-18 04:12:00,-3.297E-01,4C000000*,-702.6,965.001,89,29.1,44.8,0.406,735.4,2.1,1.050*
2018-08-18 04:13:00,-4.555E-01,4C000000*,-702.6,963.384,90,29.1,45.1,0.407,735.4,2.1,1.050*
2018-08-18 04:14:00,-3.092E-01,4C000000*,-703.0,964.597,90,29.1,44.9,0.407,735.4,2.1,1.050*